When you browse on this site, cookies collect data to enhance your experience and personalize the content and advertising you see.
Visit our Privacy Policy to learn more. By continuing to use the site, you agree to this use of cookies and data.
  • In Czech Republic
  • List of Countries
  • For 7 days
  • Water Temperature
  • Satellite Maps
  • Weather Map
  • Weather Widgets
  • user-avatar
    Login

    Hourly Weather Bruges

    Today, 21 January, Monday

    Time Temperature Precipitation Wind Pressure Humidity
    00:00 0°C° 0 mm 1 mps 766 mmHg 55%
    01:00 0°C° 0 mm 1 mps 766 mmHg 55%
    02:00 0°C° 0 mm 1 mps 766 mmHg 55%
    03:00 -1°C° 0 mm 0 mps 766 mmHg 55%
    04:00 -1°C° 0 mm 0 mps 766 mmHg 55%
    05:00 0°C° 0 mm 1 mps 766 mmHg 55%
    06:00 0°C° 0 mm 1 mps 766 mmHg 55%
    07:00 +1°C° 0 mm 1 mps 766 mmHg 55%
    08:00 +1°C° 0 mm 1 mps 766 mmHg 56%
    09:00 -1°C° 0 mm 2 mps 766 mmHg 56%
    10:00 +1°C° 0 mm 2 mps 766 mmHg 54%
    11:00 +2°C° 0 mm 2 mps 766 mmHg 52%
    12:00 +2°C° 0 mm 3 mps 766 mmHg 50%
    13:00 +2°C° 0 mm 3 mps 765 mmHg 51%
    14:00 +2°C° 0 mm 3 mps 765 mmHg 52%
    15:00 +2°C° 0 mm 3 mps 764 mmHg 53%
    16:00 +1°C° 0 mm 3 mps 764 mmHg 52%
    17:00 0°C° 0 mm 3 mps 763 mmHg 52%
    18:00 -2°C° 0 mm 4 mps 763 mmHg 51%
    19:00 -2°C° 0 mm 4 mps 762 mmHg 53%
    20:00 -2°C° 0 mm 4 mps 762 mmHg 54%
    21:00 -2°C° 0 mm 5 mps 761 mmHg 56%
    22:00 -2°C° 0 mm 5 mps 760 mmHg 57%
    23:00 -3°C° 0 mm 6 mps 760 mmHg 57%

    Tomorrow, 22 January, Tuesday

    Time Temperature Precipitation Wind Pressure Humidity
    00:00 -3°C° 0 mm 6 mps 759 mmHg 58%
    01:00 -3°C° 0 mm 7 mps 757 mmHg 60%
    02:00 -4°C° 0 mm 8 mps 756 mmHg 61%
    03:00 -4°C° 0 mm 8 mps 755 mmHg 62%
    04:00 -4°C° 0.2 mm 9 mps 754 mmHg 67%
    05:00 -3°C° 0.2 mm 9 mps 752 mmHg 72%
    06:00 -3°C° 0.2 mm 9 mps 751 mmHg 76%
    07:00 -2°C° 0.6 mm 8 mps 751 mmHg 80%
    08:00 -1°C° 0.6 mm 7 mps 751 mmHg 84%
    09:00 +1°C° 0.6 mm 6 mps 750 mmHg 88%
    10:00 +1°C° 0.2 mm 6 mps 750 mmHg 86%
    11:00 +1°C° 0.2 mm 5 mps 750 mmHg 84%
    12:00 +3°C° 0.2 mm 4 mps 749 mmHg 83%
    13:00 +1°C° 0.1 mm 4 mps 749 mmHg 84%
    14:00 +1°C° 0.1 mm 4 mps 749 mmHg 84%
    15:00 +2°C° 0.1 mm 3 mps 749 mmHg 85%
    16:00 +1°C° 0.6 mm 3 mps 749 mmHg 86%
    17:00 +1°C° 0.6 mm 3 mps 749 mmHg 86%
    18:00 0°C° 0.6 mm 3 mps 749 mmHg 87%
    19:00 0°C° 0.7 mm 3 mps 749 mmHg 86%
    20:00 0°C° 0.7 mm 3 mps 749 mmHg 86%
    21:00 0°C° 0.7 mm 3 mps 749 mmHg 86%
    22:00 0°C° 0.5 mm 3 mps 749 mmHg 86%
    23:00 0°C° 0.5 mm 3 mps 749 mmHg 86%

    Day after tomorrow, 23 January, Wednesday

    Time Temperature Precipitation Wind Pressure Humidity
    00:00 0°C° 0.5 mm 3 mps 749 mmHg 85%
    01:00 +1°C° 0.4 mm 2 mps 749 mmHg 85%
    02:00 +1°C° 0.4 mm 2 mps 749 mmHg 84%
    03:00 +1°C° 0.4 mm 2 mps 749 mmHg 83%
    04:00 +1°C° 0.3 mm 2 mps 750 mmHg 83%
    05:00 +1°C° 0.3 mm 2 mps 750 mmHg 83%
    06:00 +1°C° 0.3 mm 2 mps 750 mmHg 83%
    07:00 +1°C° 0.1 mm 2 mps 750 mmHg 83%
    08:00 +1°C° 0.1 mm 2 mps 751 mmHg 82%
    09:00 +2°C° 0.1 mm 1 mps 751 mmHg 82%
    10:00 +3°C° 0 mm 1 mps 752 mmHg 85%
    11:00 +3°C° 0 mm 1 mps 752 mmHg 87%
    12:00 +4°C° 0 mm 1 mps 752 mmHg 89%
    13:00 +3°C° 0.2 mm 2 mps 752 mmHg 88%
    14:00 +3°C° 0.2 mm 2 mps 753 mmHg 86%
    15:00 +2°C° 0.2 mm 3 mps 753 mmHg 84%
    16:00 0°C° 0.4 mm 4 mps 753 mmHg 85%
    17:00 0°C° 0.4 mm 4 mps 754 mmHg 86%
    18:00 0°C° 0.4 mm 5 mps 754 mmHg 87%
    19:00 0°C° 0.5 mm 5 mps 755 mmHg 87%
    20:00 0°C° 0.5 mm 5 mps 756 mmHg 88%
    21:00 0°C° 0.5 mm 5 mps 756 mmHg 88%
    22:00 0°C° 0.2 mm 5 mps 757 mmHg 87%
    23:00 0°C° 0.2 mm 4 mps 757 mmHg 87%

    24 January, Thursday

    Time Temperature Precipitation Wind Pressure Humidity
    00:00 0°C° 0.2 mm 4 mps 758 mmHg 86%
    01:00 -1°C° 0 mm 4 mps 758 mmHg 88%
    02:00 -1°C° 0 mm 4 mps 759 mmHg 89%
    03:00 0°C° 0 mm 3 mps 759 mmHg 91%
    04:00 0°C° 0 mm 3 mps 760 mmHg 90%
    05:00 +1°C° 0 mm 2 mps 760 mmHg 90%
    06:00 +1°C° 0 mm 2 mps 761 mmHg 89%
    07:00 +2°C° 0 mm 1 mps 761 mmHg 89%
    08:00 +2°C° 0 mm 1 mps 762 mmHg 89%
    09:00 +2°C° 0 mm 1 mps 762 mmHg 89%
    10:00 +3°C° 0 mm 1 mps 763 mmHg 90%
    11:00 +3°C° 0 mm 1 mps 763 mmHg 92%
    12:00 +4°C° 0 mm 1 mps 763 mmHg 93%
    13:00 +4°C° 0 mm 1 mps 763 mmHg 92%
    14:00 +4°C° 0 mm 1 mps 763 mmHg 90%
    15:00 +4°C° 0 mm 1 mps 763 mmHg 89%
    16:00 +2°C° 0 mm 2 mps 763 mmHg 88%
    17:00 +2°C° 0 mm 2 mps 764 mmHg 87%
    18:00 +2°C° 0 mm 2 mps 764 mmHg 86%
    19:00 0°C° 0 mm 3 mps 764 mmHg 86%
    20:00 0°C° 0 mm 3 mps 764 mmHg 86%
    21:00 -1°C° 0 mm 4 mps 764 mmHg 86%
    22:00 -1°C° 0 mm 4 mps 764 mmHg 86%
    23:00 -1°C° 0 mm 5 mps 764 mmHg 85%

    25 January, Friday

    Time Temperature Precipitation Wind Pressure Humidity
    00:00 -1°C° 0 mm 5 mps 763 mmHg 85%
    01:00 -1°C° 0 mm 5 mps 763 mmHg 86%
    02:00 -2°C° 0 mm 6 mps 763 mmHg 86%
    03:00 -1°C° 0 mm 6 mps 762 mmHg 87%
    04:00 -1°C° 0.2 mm 7 mps 762 mmHg 89%
    05:00 -1°C° 0.2 mm 7 mps 762 mmHg 90%
    06:00 -1°C° 0.2 mm 7 mps 761 mmHg 92%
    07:00 0°C° 0.1 mm 7 mps 761 mmHg 93%
    08:00 +1°C° 0.1 mm 6 mps 761 mmHg 95%
    09:00 +1°C° 0.1 mm 5 mps 762 mmHg 96%
    10:00 +2°C° 0.1 mm 5 mps 761 mmHg 97%
    11:00 +3°C° 0.1 mm 5 mps 761 mmHg 97%
    12:00 +4°C° 0.1 mm 4 mps 761 mmHg 98%
    13:00 +5°C° 0 mm 4 mps 761 mmHg 97%
    14:00 +5°C° 0 mm 4 mps 761 mmHg 97%
    15:00 +5°C° 0 mm 4 mps 760 mmHg 96%
    16:00 +5°C° 0 mm 4 mps 760 mmHg 96%
    17:00 +3°C° 0 mm 5 mps 760 mmHg 96%
    18:00 +3°C° 0 mm 5 mps 760 mmHg 96%
    19:00 +3°C° 0 mm 5 mps 760 mmHg 96%
    20:00 +3°C° 0 mm 5 mps 760 mmHg 96%
    21:00 +3°C° 0 mm 5 mps 760 mmHg 96%
    22:00 +3°C° 0 mm 5 mps 759 mmHg 95%
    23:00 +3°C° 0 mm 5 mps 759 mmHg 95%

    26 January, Saturday

    Time Temperature Precipitation Wind Pressure Humidity
    00:00 +5°C° 0 mm 5 mps 758 mmHg 95%
    01:00 +4°C° 0.1 mm 6 mps 758 mmHg 95%
    02:00 +4°C° 0.1 mm 6 mps 757 mmHg 95%
    03:00 +5°C° 0.1 mm 6 mps 757 mmHg 95%
    04:00 +5°C° 0.3 mm 6 mps 756 mmHg 95%
    05:00 +5°C° 0.3 mm 6 mps 756 mmHg 96%
    06:00 +7°C° 0.3 mm 6 mps 755 mmHg 96%
    07:00 +7°C° 0.6 mm 6 mps 754 mmHg 95%
    08:00 +6°C° 0.6 mm 7 mps 754 mmHg 95%
    09:00 +8°C° 0.6 mm 7 mps 753 mmHg 94%
    10:00 +7°C° 0.1 mm 8 mps 752 mmHg 92%
    11:00 +7°C° 0.1 mm 8 mps 751 mmHg 90%
    12:00 +7°C° 0.1 mm 9 mps 751 mmHg 88%
    13:00 +6°C° 0.2 mm 9 mps 750 mmHg 86%
    14:00 +6°C° 0.2 mm 9 mps 749 mmHg 84%
    15:00 +5°C° 0.2 mm 9 mps 747 mmHg 82%
    16:00 +5°C° 0 mm 8 mps 746 mmHg 83%
    17:00 +5°C° 0 mm 8 mps 745 mmHg 84%
    18:00 +5°C° 0 mm 8 mps 744 mmHg 85%
    19:00 +5°C° 1 mm 8 mps 743 mmHg 86%
    20:00 +5°C° 1 mm 9 mps 742 mmHg 87%
    21:00 +5°C° 1 mm 10 mps 742 mmHg 88%
    22:00 +5°C° 0.2 mm 10 mps 741 mmHg 88%
    23:00 +3°C° 0.2 mm 10 mps 741 mmHg 87%
    Show more